EW3511 Weather Reports


Display with metric or nautical units.
time (UTC)temp
F
wind
direction
speed
MPH
gust
MPH
rain 1hr
in
rain 24hr
in
rain mn
in
humidity
%
barometer
mb
20260903100603 76 155 2.0 5.0 0.00 0.00 0.00 57 1022.1
20260903095605 77 71 2.0 8.0 0.00 0.00 0.00 57 1022.1
20260903094604 77 39 1.0 3.0 0.00 0.00 0.00 57 1022.4
20260903093604 76 145 2.0 5.0 0.00 0.00 0.00 58 1022.4
20260903092605 75 56 2.0 9.0 0.00 0.00 0.00 58 1022.4
20260903091605 75 213 3.0 8.0 0.00 0.00 0.00 58 1022.4
20260903090606 75 150 2.0 6.0 0.00 0.00 0.00 59 1022.3
20260903085606 74 282 2.0 6.0 0.00 0.00 0.00 60 1022.3
20260903084606 74 249 3.0 6.0 0.00 0.00 0.00 59 1022.4
20260903083607 75 169 2.0 6.0 0.00 0.00 0.00 59 1022.3
20260903082607 74 68 1.0 3.0 0.00 0.00 0.00 61 1022.2
20260903081608 73 199 2.0 5.0 0.00 0.00 0.00 63 1022.3
20260903080608 73 173 2.0 5.0 0.00 0.00 0.00 64 1022.2
20260903075608 73 140 1.0 3.0 0.00 0.00 0.00 65 1022.5
20260903074537 72 114 1.0 3.0 0.00 0.00 0.00 67 1022.5
20260903073538 70 100 1.0 2.0 0.00 0.00 0.00 70 1022.7
20260903072538 69 102 0.0 2.0 0.00 0.00 0.00 71 1022.7
20260903071618 68 111 1.0 2.0 0.00 0.00 0.00 72 1022.6
20260903070619 68 108 1.0 2.0 0.00 0.00 0.00 71 1022.7
20260903065539 68 109 1.0 2.0 0.00 0.00 0.00 71 1022.6
20260903064540 68 122 0.0 2.0 0.00 0.00 0.00 70 1022.6
20260903063539 68 100 0.0 2.0 0.00 0.00 0.00 71 1022.4
20260903062540 66 91 0.0 1.0 0.00 0.00 0.00 76 1022.3
20260903061540 67 0.0 0.0 0.00 0.00 0.00 72 1022.4
20260903060540 62 0.0 0.0 0.00 0.00 0.00 81 1022.3
20260903055601 65 0.0 0.0 0.00 0.00 0.00 76 1022.3
20260903054541 65 0.0 0.0 0.00 0.00 0.00 74 1022.2
20260903053543 61 0.0 0.0 0.00 0.00 0.00 83 1022.4
20260903052603 57 0.0 0.0 0.00 0.00 0.00 91 1022.3
20260903051544 55 0.0 0.0 0.00 0.00 0.00 95 1022.2
20260903050544 54 0.0 0.0 0.00 0.00 0.00 95 1022.2
20260903045545 54 0.0 0.0 0.00 0.00 0.00 95 1022.2
20260903044544 54 0.0 0.0 0.00 0.00 0.00 95 1022.1
20260903043545 54 0.0 0.0 0.00 0.00 0.00 95 1022.0
20260903042544 54 0.0 0.0 0.00 0.00 0.00 94 1021.8
20260903041545 55 0.0 0.0 0.00 0.00 0.00 93 1022.0
20260903040545 55 0.0 0.0 0.00 0.00 0.00 93 1022.1
20260903035546 56 0.0 0.0 0.00 0.00 0.00 92 1021.9
20260903034626 56 0.0 0.0 0.00 0.00 0.00 91 1022.0
20260903033546 55 0.0 0.0 0.00 0.00 0.00 92 1021.9
20260903032547 56 0.0 0.0 0.00 0.00 0.00 92 1021.9
20260903031548 56 0.0 0.0 0.00 0.00 0.00 91 1021.9
20260903030548 57 0.0 0.0 0.00 0.00 0.00 90 1021.8
20260903025548 57 0.0 0.0 0.00 0.00 0.00 89 1022.0
20260903024549 58 0.0 0.0 0.00 0.00 0.00 86 1022.0
20260903023549 59 0.0 0.0 0.00 0.00 0.00 85 1022.0
20260903022610 59 0.0 0.0 0.00 0.00 0.00 84 1022.0
20260903021610 60 0.0 0.0 0.00 0.00 0.00 82 1021.9
20260903020630 60 0.0 0.0 0.00 0.00 0.00 81 1021.9
20260903015550 61 0.0 0.0 0.00 0.00 0.00 80 1021.9
20260903014552 61 0.0 0.0 0.00 0.00 0.00 80 1021.8
20260903013552 61 0.0 0.0 0.00 0.00 0.00 81 1021.9
20260903012552 61 0.0 0.0 0.00 0.00 0.00 81 1021.8
20260903011552 61 0.0 0.0 0.00 0.00 0.00 81 1021.7
20260903010553 61 0.0 1.0 0.00 0.00 0.00 81 1021.7
20260903005553 61 0.0 0.0 0.00 0.00 0.00 80 1021.7
20260903004555 61 0.0 0.0 0.00 0.00 0.00 80 1021.8
20260903003554 61 0.0 0.0 0.00 0.00 0.00 80 1021.6
20260903002554 61 0.0 1.0 0.00 0.00 0.00 79 1021.6
20260903001615 61 57 0.0 1.0 0.00 0.00 0.00 79 1021.5
20260903000556 61 0.0 1.0 0.00 0.00 0.00 79 1021.6
20260902235556 62 77 0.0 1.0 0.00 0.00 0.00 78 1021.5
20260902234556 62 105 0.0 1.0 0.00 0.00 0.00 77 1021.5
20260902233558 62 80 0.0 1.0 0.00 0.00 0.00 77 1021.5
20260902232637 62 73 0.0 1.0 0.00 0.00 0.00 76 1021.5
20260902231557 63 0.0 0.0 0.00 0.00 0.00 75 1021.5
20260902230558 63 58 0.0 1.0 0.00 0.00 0.00 75 1021.5
20260902225559 63 74 0.0 2.0 0.00 0.00 0.00 74 1021.5
20260902224559 63 78 0.0 2.0 0.00 0.00 0.00 75 1021.4
20260902223600 62 0.0 1.0 0.00 0.00 0.00 76 1021.5
20260902222559 61 0.0 0.0 0.00 0.00 0.00 79 1021.5
20260902221600 60 0.0 0.0 0.00 0.00 0.00 83 1021.3
20260902220621 59 0.0 0.0 0.00 0.00 0.00 87 1021.3
20260902215600 59 0.0 0.0 0.00 0.00 0.00 88 1021.1
20260902214621 59 0.0 0.0 0.00 0.00 0.00 87 1021.0
20260902213601 59 0.0 0.0 0.00 0.00 0.00 88 1021.0
20260902212602 59 0.0 0.0 0.00 0.00 0.00 86 1021.1
20260902211603 60 0.0 0.0 0.00 0.00 0.00 86 1021.0
20260902210603 60 0.0 1.0 0.00 0.00 0.00 86 1021.0
20260902205603 60 0.0 0.0 0.00 0.00 0.00 85 1020.9
20260902204604 61 0.0 0.0 0.00 0.00 0.00 84 1020.9
20260902203537 62 0.0 1.0 0.00 0.00 0.00 82 1021.0
20260902202536 62 0.0 0.0 0.00 0.00 0.00 80 1020.8
20260902201557 63 143 1.0 2.0 0.00 0.00 0.00 79 1020.8
20260902200537 63 0.0 0.0 0.00 0.00 0.00 77 1020.8
20260902195538 63 0.0 0.0 0.00 0.00 0.00 78 1020.7
20260902194538 64 75 0.0 1.0 0.00 0.00 0.00 76 1020.7
20260902193538 65 0.0 0.0 0.00 0.00 0.00 75 1020.7
20260902192539 66 0.0 0.0 0.00 0.00 0.00 71 1020.7
20260902191539 67 0.0 1.0 0.00 0.00 0.00 66 1020.7
20260902190540 66 67 0.0 1.0 0.00 0.00 0.00 67 1020.7
20260902185540 65 0.0 0.0 0.00 0.00 0.00 74 1020.6
20260902184541 66 0.0 0.0 0.00 0.00 0.00 78 1020.4
20260902183542 66 0.0 0.0 0.00 0.00 0.00 76 1020.2
20260902182541 66 53 0.0 1.0 0.00 0.00 0.00 76 1020.2
20260902181542 67 69 0.0 1.0 0.00 0.00 0.00 75 1020.2
20260902180543 68 0.0 1.0 0.00 0.00 0.00 74 1019.9
20260902175542 70 0.0 0.0 0.00 0.00 0.00 73 1019.8
20260902174543 71 0.0 0.0 0.00 0.00 0.00 70 1019.7
20260902173543 72 99 0.0 1.0 0.00 0.00 0.00 66 1019.6
20260902172544 73 125 0.0 2.0 0.00 0.00 0.00 61 1019.6
20260902171545 74 0.0 0.0 0.00 0.00 0.00 61 1019.5
20260902170545 74 0.0 0.0 0.00 0.00 0.00 60 1019.6
20260902165545 74 63 0.0 1.0 0.00 0.00 0.00 59 1019.6
20260902164545 75 55 0.0 1.0 0.00 0.00 0.00 57 1019.5
20260902163606 75 60 0.0 1.0 0.00 0.00 0.00 54 1019.5
20260902162547 76 70 0.0 1.0 0.00 0.00 0.00 54 1019.3
20260902161546 76 49 0.0 1.0 0.00 0.00 0.00 51 1019.4
20260902160627 76 51 0.0 3.0 0.00 0.00 0.00 50 1019.3
20260902155547 77 58 1.0 3.0 0.00 0.00 0.00 50 1019.4
20260902154548 77 41 1.0 3.0 0.00 0.00 0.00 49 1019.5
20260902153550 77 170 1.0 5.0 0.00 0.00 0.00 46 1019.4
20260902152549 78 60 1.0 5.0 0.00 0.00 0.00 45 1019.4
20260902151549 80 236 2.0 5.0 0.00 0.00 0.00 43 1019.6
20260902150549 80 112 2.0 5.0 0.00 0.00 0.00 43 1019.6
20260902145551 80 218 2.0 6.0 0.00 0.00 0.00 42 1019.6
20260902144550 80 346 3.0 7.0 0.00 0.00 0.00 44 1019.6
20260902143611 80 142 2.0 5.0 0.00 0.00 0.00 45 1019.7
20260902142552 80 84 1.0 6.0 0.00 0.00 0.00 46 1019.8
20260902141614 80 118 2.0 5.0 0.00 0.00 0.00 50 1019.7
20260902140552 80 147 2.0 8.0 0.00 0.00 0.00 49 1019.8
20260902135553 81 106 1.0 3.0 0.00 0.00 0.00 47 1019.9
20260902134553 81 187 2.0 6.0 0.00 0.00 0.00 48 1019.8
20260902133607 80 106 1.0 5.0 0.00 0.00 0.00 52 1019.8
20260902132554 78 76 1.0 6.0 0.00 0.00 0.00 53 1020.0
20260902131558 78 37 2.0 6.0 0.00 0.00 0.00 55 1020.2
20260902130555 78 117 1.0 3.0 0.00 0.00 0.00 56 1020.1
20260902125556 76 95 2.0 6.0 0.00 0.00 0.00 58 1020.2
20260902124556 76 66 2.0 6.0 0.00 0.00 0.00 60 1020.4
20260902123616 76 48 1.0 5.0 0.00 0.00 0.00 60 1020.5
20260902122557 76 75 2.0 5.0 0.00 0.00 0.00 59 1020.5
20260902121557 75 60 2.0 3.0 0.00 0.00 0.00 59 1020.6
20260902120559 74 54 1.0 5.0 0.00 0.00 0.00 60 1020.6
20260902115558 76 45 1.0 3.0 0.00 0.00 0.00 58 1020.6
20260902114558 75 140 1.0 5.0 0.00 0.00 0.00 59 1020.7
20260902113559 74 42 1.0 2.0 0.00 0.00 0.00 60 1020.7
20260902110557 74 47 1.0 3.0 0.00 0.00 0.00 63 1020.9
20260902105557 73 56 1.0 3.0 0.00 0.00 0.00 65 1021.0
20260902104558 73 70 1.0 2.0 0.00 0.00 0.00 66 1021.2
20260902103557 73 69 1.0 2.0 0.00 0.00 0.00 65 1021.3
20260902102559 73 54 1.0 2.0 0.00 0.00 0.00 65 1021.2
20260902101559 73 71 1.0 3.0 0.00 0.00 0.00 66 1021.4